Terminal Aerodrome Forecast
Issued by NWS Mobile, AL

Home | Current Version | Previous Version | Text Only | Print | Product List | Glossary On
Versions: 1 2 3 4 5 6 7 8 9 10 11 12 13 14 15 16 17 18 19 20 21 22 23 24 25 26
000
FTUS44 KMOB 300500 RRA
TAFPNS
TAF
KPNS 300543Z 3006/0106 04004KT P6SM SKC
     FM301000 04005KT 2SM BR OVC004
     FM301400 05006KT P6SM SCT009 BKN015=

USA.gov is the U.S. government's official web portal to all federal, state and local government web resources and services.